ONEWEB-0313, 49099

Orbit data source: Space-Track

ONEWEB-0313, 49099 is a payload satellite owned by One Web (NAA) (UK) in LEO that was launched on Sat, 21 Aug 2021 UTC via a SOYUZ-2-1B launch vehicle from the Tyuratam Missile And Space Complex (TTMTR). Payload-class satellites include a variety of spacecraft equipped with specific instruments for various scientific and technological missions. These include communications satellites like Starlink; space stations such as the ISS; scientific satellites like the Hubble; Earth observation satellites from companies like Planet Labs, Umbra, and HawkEye 360; GPS; miniature CubeSats for education and research; and military/defense satellites.

Loading next visibility...
Identifier
49099, 2021-075AA
Orbit
LEO
Country
Flag of UKUK
Related business
Manufacturer
One Web
Mission
Operational Commercial Communications
Bus & Motor
ARROW, Unknown motor
Mass
148 kg wet, ~140 kg dry
Launch date (UTC)
2021-08-21 (5 years ago)
Launch vehicle
SOYUZ-2-1B
Launch site
Tyuratam Missile And Space Complex (TTMTR)
Object type
Payload
Rocket body
Debris
Shape & HBR
Trap Box + 2 Pan, 6.7 m
Radar Cross Section
3.464 m², Large (>1 m²)

Expand to show TLE details & history
Last TLE update: 8 hours ago

TLE from 8 hours ago
0 ONEWEB-0313
1 49099U 21075AA  26130.14782267  .00000070  00000-0  14625-3 0  9993
2 49099  87.9166  13.4425 0001823  85.3182 274.8158 13.17650161228581
Epoch: 2026-05-10T03:32Z
TLE epoch observation values (Epoch: 2026-05-10T03:32:51.878Z)
Latitude
-0°
Longitude
92.27127°
Altitude
1,196.492 km
Speed
7.256 km/s
True Right ascension
00h 53m 46s
True Declination
0° 00' 00"
Sunlit
Object was in daylight at epoch
Visualization orbit readout
Latitude
Unknown
Longitude
Unknown
Altitude
Unknown
Speed
Unknown
Apparent Right ascension
Unknown
Apparent Declination
Unknown
Sunlit
N/A
Visualization observer readout
Local Sidereal Time
19:47:48
Azimuth
Unknown
Elevation
Unknown
Doppler factor
Unknown
Orbital elements
Apogee altitude
1,192.197 km
Perigee altitude
1,189.438 km
Semi-major axis
7,568.955 km
Eccentricity
0.00018
Inclination
87.9166°
RAAN
13.4425°
Arg. of periapsis
85.3182°
True anomaly
274.79498°
Mean anomaly
274.8158°
Eccentric anomaly
274.80539°
Mean motion
3.29602 °/min
Orbital period
109.22 mins
BSTAR
0.00014625
Loading maneuver chart data...
Computing Atmospheric mass density...
Loading historical data...
Loading historical data...
Loading historical data...
Loading historical data...
Loading historical data...
Loading historical data...
Loading historical data...

Documentation

Showing up to 5 results
|